Regional Weather Roundup
Issued by NWS Glasgow, MT

Home | Current Version | Previous Version | Text Only | Print | Product List | Glossary On
Versions: 1 2 3 4 5 6 7 8 9 10 11 12 13 14 15 16 17 18 19 20 21 22 23 24 25 26 27 28 29 30 31 32 33 34 35 36 37 38 39 40 41 42 43 44 45 46 47 48 49 50
000
ASUS45 KGGW 011315
RWRGGW
HOURLY WEATHER ROUNDUP FOR NORTHEAST MONTANA
NATIONAL WEATHER SERVICE GLASGOW MONTANA
700 AM MDT WED OCT 01 2014

NOTE: "FAIR" INDICATES FEW OR NO CLOUDS BELOW 12,000 FEET WITH NO
SIGNIFICANT WEATHER AND/OR OBSTRUCTIONS TO VISISBILITY.

NORTHEAST MONTANA


CITY           SKY/WX    TMP DP  RH WIND       PRES   REMARKS
GLASGOW        CLOUDY    50  43  77 W17       29.74R
PLENTYWOOD       N/A     52  49  89 W16         N/A
WOLF POINT     CLOUDY    52  46  80 W17G26    29.71R
JORDAN           N/A     48  42  80 W20       29.80R
WINNETT          N/A     48  40  73 SW6         N/A
SIDNEY         CLOUDY    52  46  82 W15G23    29.69R
GLENDIVE       CLOUDY    50  45  81 W20G28    29.74R
MALTA            N/A     47  43  86 W14         N/A
OPHEIM           N/A     45  43  93 W15       29.55R

FORT PECK REPORTS


CITY           SKY/WX    TMP DP  RH WIND       PRES   REMARKS
FORT PECK        N/A     48  44  86 W20         N/A
THE PINES        N/A     49  44  83 W10G21      N/A

SOUTHEAST MONTANA


CITY           SKY/WX    TMP DP  RH WIND       PRES   REMARKS
BILLINGS       MOCLDY    46  36  68 W7        29.92R
MILES CITY     CLOUDY    50  41  71 W20G26    29.82R
BAKER          CLOUDY    48  46  93 W21G28    29.77R
LIVINGSTON     CLOUDY    41  32  70 W6        29.97R

CENTRAL MONTANA


CITY           SKY/WX    TMP DP  RH WIND       PRES   REMARKS
HAVRE          CLOUDY    44  40  85 W7        29.88R
LEWISTOWN      CLOUDY    45  39  79 W9        29.93R
GREAT FALLS    CLOUDY    43  41  93 SW9       29.94R
CUT BANK       CLEAR     38  34  85 W12       29.94R
HELENA         LGT RAIN  46  37  71 W9        29.98R
BUTTE          CLOUDY    37  33  85 S3        30.03R
BOZEMAN        CLOUDY    40  36  86 S3        30.00R

WESTERN MONTANA


CITY           SKY/WX    TMP DP  RH WIND       PRES   REMARKS
MISSOULA       CLOUDY    44  40  85 SW3       30.06R
KALISPELL      NOT AVBL

NORTH DAKOTA


CITY           SKY/WX    TMP DP  RH WIND       PRES   REMARKS
WILLISTON      CLOUDY    53  49  86 W20G28    29.61R
DICKINSON      MOCLDY    52  48  86 W22G28    29.65R
MINOT          CLOUDY    54  51  90 SW12      29.50R
BISMARCK       CLOUDY    56  50  80 W13G23    29.63R

SOUTHERN SASKATCHEWAN


CITY           SKY/WX    TMP DP  RH WIND       PRES   REMARKS
REGINA         LGT RAIN  50  50 100 NW15G24   29.55R
MOOSE JAW      LGT RAIN  52  50  93 NW17G33   29.60R
ESTEVAN        LGT RAIN  50  50 100 W9        29.52R FOG
SWIFT CURRENT  CLOUDY    45  43  93 NW18G25   29.71R




USA.gov is the U.S. government's official web portal to all federal, state and local government web resources and services.